Regional Weather Roundup
Issued by NWS

Home | Current Version | Previous Version | Graphics & Text | Print | Product List | Glossary On
Versions: 1 2 3 4 5 6 7 8 9 10 11 12 13 14 15 16 17 18 19 20 21 22 23 24 25 26 27 28 29 30 31 32 33 34 35 36 37 38 39 40 41 42 43 44 45 46 47 48 49 50
000
ASUS45 KBOU 301707
RWRCO

WEATHER ROUNDUP FOR COLORADO
NATIONAL WEATHER SERVICE DENVER/BOULDER CO
1100 AM MDT MON MAY 30 2016

NOTE: "FAIR" INDICATES FEW OR NO CLOUDS BELOW 12000 FEET WITH NO
SIGNIFICANT WEATHER AND/OR OBSTRUCTIONS TO VISIBILITY.

COZ001>005-013-030-031-301800-
...NORTHWEST COLORADO...

CITY           SKY/WX    TMP DP  RH WIND       PRES   REMARKS
CRAIG          FAIR      64  43  46 W5        30.15F
HAYDEN         FAIR      61  37  41 N10       30.16F
MEEKER         FAIR      63  41  44 VRB5      30.15F
MOUNT WERNER   NOT AVBL
STEAMBOAT SPGS FAIR      57  40  52 CALM      30.18S
WALDEN         NOT AVBL
$$

COZ006>008-011-301800-
...WEST CENTRAL VALLEYS...

CITY           SKY/WX    TMP DP  RH WIND       PRES   REMARKS
GRAND JUNCTION FAIR      70  35  27 W8        30.06F
MONTROSE       FAIR      68  35  29 NW3       30.10F
EAGLE          SUNNY     61  34  36 CALM      30.14F
RIFLE          FAIR      65  38  36 W5        30.09F
DELTA          FAIR      72  34  24 W3        30.07F
NUCLA          FAIR      70  30  23 W6        30.14F
$$

COZ017>023-064>068-301800-
...SOUTHWEST COLORADO...

CITY           SKY/WX    TMP DP  RH WIND       PRES   REMARKS
DURANGO        FAIR      69  22  16 VRB6      30.16F
CORTEZ         FAIR      73  19  13 SW12      30.12F
PAGOSA SPRINGS FAIR      66  19  17 SW3       30.22F
TELLURIDE      FAIR      61  14  15 SW8G22    30.28S
WOLF CREEK PAS FAIR      43  18  36 SW15G23   30.47S
$$

COZ009-010-012-014-032>034-037-058>063-301800-
...CENTRAL COLORADO...

CITY           SKY/WX    TMP DP  RH WIND       PRES   REMARKS
ASPEN          FAIR      65  35  33 N10       30.16F
BUENA VISTA    FAIR      63  26  24 CALM      30.19F
COPPER MTN     NOT AVBL
BERTHOUD PASS  FAIR      37  30  75 NW20      30.41S
COTTONWOOD PAS CLOUDY    59  23  25 E5        30.29F
GUNNISON       FAIR      59  34  38 S3        30.22F
KREMMLING      FAIR      59  34  38 SE5       30.17F
LEADVILLE      FAIR      57  11  16 S9G23     30.27F
MONARCH PASS   FAIR      45  19  36 W17G31    30.52S
SALIDA         FAIR      68  28  22 SE5       30.24F
SUNLIGHT       FAIR      52  32  46 CALM      30.38S
WILKERSON PASS FAIR      54  23  30 SW5       30.40S
$$

COZ069>075-301800-
...SAN LUIS VALLEY/SANGRE DE CRISTO MOUNTAINS...

CITY           SKY/WX    TMP DP  RH WIND       PRES   REMARKS
ALAMOSA        FAIR      64  34  32 SE7       30.19F
LA VETA PASS   FAIR      57  30  35 S6        30.34F
SAGUACHE       FAIR      61  34  36 SE8       30.22F
$$

COZ035-036-038>040-301800-
...NORTHERN COLORADO FRONT RANGE...

CITY           SKY/WX    TMP DP  RH WIND       PRES   REMARKS
DENVER INTL AP FAIR      72  39  30 SE6       30.01F
DMNS CITY PARK   N/A     74  40  29 W5        30.00F
AURORA         NOT AVBL
FRONT RANGE AP MOSUNNY   70  41  35 CALM      30.03F
ERIE MUNI ARPT FAIR      72  43  35 CALM      30.00S
BOULDER MUN AP FAIR      70  41  35 NE3       30.00F
CENTENNIAL     FAIR      74  33  22 SE3       30.03F
BROOMFIELD     MOSUNNY   72  37  28 CALM      30.02F
FORT COLLINS   FAIR      70  48  46 S6        30.00F
LONGMONT       FAIR      74  46  36 NE5       30.01F
$$

COZ041-046-047-076>085-087-088-301800-
...PIKES PEAK/PALMER DIVIDE AND SOUTHERN FOOTHILLS...

CITY           SKY/WX    TMP DP  RH WIND       PRES   REMARKS
COLO. SPRINGS  FAIR      68  43  40 SE6       30.09F
A. F. ACADEMY  FAIR      72  39  30 S9        30.08F
SCHRIEVER AFB  NOT AVBL
ELLICOTT       NOT AVBL
FALCON         FAIR      70  36  28 S8        30.13F
FORT CARSON    FAIR      72  48  43 SE3       30.05F
LIMON          FAIR      69  49  48 S6        30.05F
MONUMENT HILL  FAIR      70  28  21 W13G20    30.13F
TRINIDAD       FAIR      72  40  31 VRB3      30.07F
$$

COZ042>045-048>051-090-091-301800-
...NORTHEAST COLORADO...

CITY           SKY/WX    TMP DP  RH WIND       PRES   REMARKS
GREELEY ARPT   FAIR      73  48  40 S7        30.00F
AKRON          FAIR      72  49  44 CALM      30.00F
BURLINGTON     FAIR      73  51  46 S9        30.00F
WRAY           FAIR      75  52  43 SE6       29.98F
STERLING       FAIR      72  54  53 S3        29.96F
HOLYOKE        FAIR      77  50  38 S9        29.97F
FORT MORGAN    FAIR      70  48  45 SW3       29.99F
$$

COZ086-089-092>099-301800-
...SOUTHEAST COLORADO...

CITY           SKY/WX    TMP DP  RH WIND       PRES   REMARKS
PUEBLO         FAIR      73  47  39 CALM      30.00F
LA JUNTA       FAIR      72  49  44 SW6       30.00F
LAMAR          FAIR      78  51  38 N6        29.95F
SPRINGFIELD      N/A     71  53  52 SW13G23   30.02F
$$



USA.gov is the U.S. government's official web portal to all federal, state and local government web resources and services.